TimeEDT,TemperatureF,Dew PointF,Humidity,Sea Level PressureIn,VisibilityMPH,Wind Direction,Wind SpeedMPH,Gust SpeedMPH,PrecipitationIn,Events,Conditions,WindDirDegrees,DateUTC
12:54 AM,54.0,51.1,90,29.81,10.0,ENE,4.6,-,0.04,,Overcast,70,2012-10-02 04:54:00
1:54 AM,54.0,52.0,93,29.80,4.0,NNE,5.8,-,0.08,Rain,Light Rain,30,2012-10-02 05:54:00
2:54 AM,55.0,52.0,89,29.80,10.0,ENE,6.9,-,0.04,,Overcast,60,2012-10-02 06:54:00
3:54 AM,55.0,53.1,93,29.78,5.0,NE,5.8,-,0.02,Rain,Light Rain,50,2012-10-02 07:54:00
4:54 AM,55.0,53.1,93,29.79,10.0,ENE,5.8,-,0.01,,Overcast,60,2012-10-02 08:54:00
5:54 AM,55.0,53.1,93,29.78,8.0,ENE,5.8,-,0.01,,Overcast,70,2012-10-02 09:54:00
6:54 AM,55.4,53.6,94,29.80,9.0,Calm,Calm,-,N/A,,Overcast,0,2012-10-02 10:54:00
7:25 AM,55.4,53.6,94,29.80,3.0,ENE,3.5,-,N/A,Rain,Rain,70,2012-10-02 11:25:00
7:51 AM,55.4,53.6,94,29.82,2.0,East,3.5,-,0.20,Rain,Rain,80,2012-10-02 11:51:00
7:54 AM,55.0,53.1,93,29.81,2.5,Calm,Calm,-,0.21,Rain,Rain,0,2012-10-02 11:54:00
8:01 AM,55.4,53.6,94,29.82,3.0,Variable,3.5,-,0.02,Rain,Light Rain,0,2012-10-02 12:01:00
8:54 AM,57.0,55.0,93,29.83,5.0,Calm,Calm,-,0.03,,Overcast,0,2012-10-02 12:54:00
9:54 AM,59.0,57.0,93,29.83,6.0,Calm,Calm,-,N/A,,Overcast,0,2012-10-02 13:54:00
10:47 AM,62.6,57.2,82,29.84,7.0,Calm,Calm,-,N/A,,Overcast,0,2012-10-02 14:47:00
10:54 AM,62.1,57.9,86,29.83,8.0,Calm,Calm,-,N/A,,Overcast,0,2012-10-02 14:54:00
10:59 AM,62.6,57.2,82,29.84,8.0,Calm,Calm,-,N/A,,Overcast,0,2012-10-02 14:59:00
11:09 AM,62.6,59.0,88,29.83,8.0,Calm,Calm,-,N/A,,Overcast,0,2012-10-02 15:09:00
11:25 AM,64.4,60.8,88,29.84,9.0,ESE,4.6,-,N/A,,Overcast,110,2012-10-02 15:25:00
11:37 AM,64.4,60.8,88,29.84,10.0,Calm,Calm,-,N/A,,Overcast,0,2012-10-02 15:37:00
11:54 AM,66.0,60.1,81,29.83,10.0,Calm,Calm,-,N/A,,Overcast,0,2012-10-02 15:54:00
12:11 PM,66.2,62.6,88,29.84,10.0,South,3.5,-,N/A,,Overcast,180,2012-10-02 16:11:00
12:24 PM,66.2,62.6,88,29.84,10.0,ESE,4.6,-,N/A,,Overcast,120,2012-10-02 16:24:00
12:54 PM,68.0,62.1,81,29.83,10.0,SE,3.5,-,N/A,,Overcast,130,2012-10-02 16:54:00
1:54 PM,70.0,63.0,78,29.81,10.0,ESE,4.6,-,N/A,,Overcast,120,2012-10-02 17:54:00
2:54 PM,70.0,63.0,78,29.80,10.0,SSE,3.5,-,N/A,,Overcast,150,2012-10-02 18:54:00
3:54 PM,72.0,64.0,76,29.80,10.0,Variable,3.5,-,N/A,,Overcast,0,2012-10-02 19:54:00
4:24 PM,71.6,64.4,78,29.81,10.0,Variable,4.6,-,N/A,,Overcast,0,2012-10-02 20:24:00
4:54 PM,71.1,64.0,78,29.81,10.0,Variable,3.5,-,N/A,,Overcast,0,2012-10-02 20:54:00
5:26 PM,71.6,64.4,78,29.82,10.0,East,4.6,-,N/A,,Overcast,80,2012-10-02 21:26:00
5:54 PM,71.1,64.0,78,29.82,10.0,East,3.5,-,N/A,,Overcast,90,2012-10-02 21:54:00
6:54 PM,70.0,64.9,84,29.83,10.0,ENE,4.6,-,N/A,,Overcast,70,2012-10-02 22:54:00
7:54 PM,68.0,64.4,88,29.84,10.0,ENE,4.6,-,N/A,,Overcast,60,2012-10-02 23:54:00
8:20 PM,66.2,64.4,94,29.84,10.0,ENE,6.9,-,N/A,,Scattered Clouds,70,2012-10-03 00:20:00
8:39 PM,66.2,64.4,94,29.85,10.0,ENE,4.6,-,N/A,,Scattered Clouds,60,2012-10-03 00:39:00
8:54 PM,66.9,64.0,90,29.85,10.0,ENE,6.9,-,N/A,,Mostly Cloudy,70,2012-10-03 00:54:00
9:54 PM,66.9,64.9,93,29.86,9.0,East,5.8,-,N/A,,Overcast,80,2012-10-03 01:54:00
10:29 PM,66.2,64.4,94,29.87,9.0,East,3.5,-,N/A,,Overcast,80,2012-10-03 02:29:00
10:54 PM,66.9,64.9,93,29.87,9.0,Calm,Calm,-,N/A,,Mostly Cloudy,0,2012-10-03 02:54:00
11:54 PM,66.9,64.0,90,29.88,9.0,WSW,8.1,-,N/A,,Overcast,240,2012-10-03 03:54:00